Regional Weather Roundup
Issued by NWS Albany, NY

Home | Current Version | Previous Version | Text Only | Print | Product List | Glossary On
Versions: 1 2 3 4 5 6 7 8 9 10 11 12 13 14 15 16 17 18 19 20 21 22 23 24 25 26 27 28 29 30 31 32 33 34 35 36 37 38 39 40 41 42 43 44 45 46 47 48 49 50
405
ASUS41 KALY 160610
RWRALY

NEW YORK STATE HOURLY WEATHER ROUNDUP
NATIONAL WEATHER SERVICE ALBANY NY
100 AM EST SAT DEC 16 2017

NOTE: "FAIR" INDICATES FEW OR NO CLOUDS BELOW 12,000 FEET WITH NO
SIGNIFICANT WEATHER AND/OR NO OBSTRUCTIONS TO VISIBILITY.

NYZ032-033-038>043-046>054-057>066-NYZ062>081-082-084-160700-
EAST


CITY           SKY/WX    TMP DP  RH WIND       PRES   REMARKS
ALBANY         FLURRIES  20  15  81 S6        29.83F WCI  12
GLENS FALLS    MOCLDY     9   7  92 CALM      29.82S
POUGHKEEPSIE   PTCLDY    18  14  84 SW3       29.88S
NEWBURGH       MOCLDY    18  16  93 W9        29.87S WCI   6
MONTGOMERY     CLEAR     12   9  87 S5        29.86S FOG     WCI   4
WHITE PLAINS   CLEAR     19  16  88 W3        29.86S
ISLIP          CLEAR     20  17  88 W8        29.89S WCI  10
NEW YORK CITY  PTCLDY    26  18  71 W14G20    29.91R WCI  14
CENTRAL PARK   CLEAR     23  18  81 VRB3      29.92R
$$

NYZ005>009-017-018-044>046-055-056-160700-
CENTRAL


CITY           SKY/WX    TMP DP  RH WIND       PRES   REMARKS
FULTON         MOCLDY    24  15  68 SW14      29.76F WCI  12
SYRACUSE       CLOUDY    24  17  74 SW13      29.78S WCI  12
ROME           CLOUDY    20  15  81 E5        29.79F WCI  13
ELMIRA         CLOUDY    26  17  68 SW8       29.81F WCI  18
BINGHAMTON     CLOUDY    19  12  74 SW9       29.76R WCI   8
MONTICELLO     MOCLDY    14  12  92 W7        29.80S WCI   4
$$

NYZ026>034-041>043-087-160700-
NORTH


CITY           SKY/WX    TMP DP  RH WIND       PRES   REMARKS
WATERTOWN      CLOUDY    23  21  92 S5        29.73F WCI  17
FORT DRUM      NOT AVBL
OGDENSBURG     MOCLDY    22  19  91 S7        29.70S WCI  13
MASSENA        LGT SNOW  17  15  92 E3        29.73F FOG
SARANAC LAKE   LGT SNOW  14  11  87 MISG      29.64F FOG
PLATTSBURGH    CLOUDY    20  12  71 S5        29.77F WCI  13
$$

NYZ001>004-010>016-019>021-085-160700-
WEST


CITY           SKY/WX    TMP DP  RH WIND       PRES   REMARKS
NIAGARA FALLS  CLEAR     24  12  60 W22       29.83R WCI   9
BUFFALO        PTCLDY    22  11  62 W15G23    29.83R WCI   9
DUNKIRK        LGT SNOW  27  17  66 W20G39    29.88R WCI  13
JAMESTOWN      FLURRIES  22  18  85 W13       29.83R WCI  10
WELLSVILLE     LGT SNOW  22  15  75 SW9G23    29.76S VSB 1   WCI  12
ROCHESTER      MOCLDY    23  14  68 W12       29.82R WCI  12
PENN YAN       LGT SNOW  25  18  74 SW10      29.80S WCI  15
$$

             KEY
       WCI = WIND CHILL INDEX
       VSB = VISIBILITY
       HX  = HEAT INDEX
$$




USA.gov is the U.S. government's official web portal to all federal, state and local government web resources and services.